Temp
-13 -13 -13 -12 -11 -11 -11 -12 -11 -11 -12 -12 -11 -11 -11 -11 -11 -10 -10 -10 -10 -10 -10 -9 -9 -10 -10 -10 -10 -10 -10 -10 -11 -11 -10 -10 -11 -11 -11 -11 -11 -11 -11 -11
-14 -14 -13 -12 -12 -11 -11 -11 -12 -12 -12 -11 -11 -11 -12 -11 -11 -11 -10 -10 -10 -10 -10 -10 -9 -10 -10 -10 -10 -10 -10 -11 -11 -11 -11 -11 -10 -11 -11 -12 -11 -12 -12 -12
-14 -14 -13 -13 -13 -12 -12 -12 -12 -12 -11 -11 -11 -11 -11 -12 -11 -11 -10 -10 -10 -10 -11 -10 -10 -10 -10 -10 -10 -10 -11 -11 -11 -12 -11 -12 -11 -11 -12 -12 -12 -12 -12 -12
-15 -14 -13 -13 -13 -13 -12 -12 -12 -12 -12 -12 -12 -10 -11 -12 -12 -11 -11 -10 -11 -11 -11 -11 -11 -11 -11 -11 -11 -11 -11 -11 -12 -12 -12 -12 -12 -12 -13 -12 -12 -12 -12 -12
-14 -14 -14 -14 -14 -13 -13 -12 -12 -12 -12 -12 -11 -11 -11 -11 -11 -11 -11 -11 -11 -11 -11 -12 -12 -11 -12 -12 -12 -12 -12 -12 -12 -12 -13 -13 -13 -13 -14 -13 -13 -13 -13 -13
-15 -15 -14 -14 -14 -13 -13 -12 -12 -12 -12 -11 -12 -11 -11 -11 -12 -12 -11 -11 -11 -11 -11 -11 -12 -12 -13 -13 -13 -13 -13 -12 -13 -13 -14 -14 -14 -14 -14 -14 -14 -13 -13 -13
-15 -15 -14 -14 -14 -14 -13 -13 -12 -12 -12 -11 -12 -11 -10 -11 -11 -12 -11 -11 -11 -11 -11 -11 -12 -12 -13 -14 -14 -14 -13 -13 -13 -13 -14 -14 -15 -15 -15 -14 -14 -14 -14 -14
-15 -15 -14 -14 -14 -14 -14 -14 -14 -13 -12 -11 -12 -11 -11 -12 -12 -12 -12 -11 -12 -12 -12 -11 -12 -12 -13 -14 -14 -14 -14 -13 -14 -14 -14 -15 -16 -15 -15 -15 -14 -14 -15 -15
-16 -16 -15 -15 -15 -15 -14 -14 -14 -13 -13 -12 -11 -11 -11 -12 -13 -13 -12 -12 -12 -12 -12 -12 -13 -13 -12 -12 -13 -14 -14 -14 -14 -15 -16 -16 -15 -15 -16 -15 -16 -16 -15 -15
-16 -16 -16 -16 -16 -15 -15 -16 -15 -14 -13 -12 -11 -11 -12 -13 -13 -13 -13 -12 -12 -12 -12 -13 -13 -14 -14 -14 -14 -15 -14 -15 -16 -16 -15 -15 -15 -16 -16 -16 -16 -16 -16 -16
-17 -17 -16 -16 -16 -15 -15 -15 -15 -15 -13 -13 -12 -11 -14 -14 -14 -14 -13 -13 -13 -13 -13 -13 -14 -14 -14 -14 -14 -14 -15 -15 -15 -15 -15 -15 -16 -16 -17 -16 -16 -16 -16 -16
-17 -17 -17 -16 -17 -17 -17 -16 -16 -15 -15 -14 -13 -11 -14 -14 -15 -15 -14 -14 -14 -14 -14 -15 -15 -14 -15 -15 -15 -15 -15 -15 -15 -15 -16 -17 -16 -16 -17 -17 -16 -16 -16 -16
-18 -18 -18 -17 -17 -16 -16 -16 -16 -16 -16 -14 -14 -11 -15 -15 -15 -14 -15 -15 -15 -15 -15 -15 -15 -15 -15 -15 -15 -15 -16 -17 -17 -17 -17 -17 -17 -17 -17 -16 -16 -16 -16 -16
-20 -19 -18 -17 -17 -17 -17 -16 -17 -17 -17 -15 -14 -14 -16 -16 -15 -15 -15 -15 -15 -15 -15 -15 -15 -15 -15 -16 -16 -17 -17 -17 -17 -17 -17 -17 -17 -17 -17 -16 -16 -16 -17 -17
-20 -19 -19 -18 -18 -18 -17 -17 -18 -17 -15 -16 -15 -15 -17 -16 -16 -15 -16 -16 -16 -16 -16 -16 -16 -16 -17 -17 -17 -17 -17 -17 -17 -17 -17 -17 -17 -16 -16 -17 -17 -17 -17 -17
-20 -19 -19 -19 -18 -18 -18 -18 -17 -16 -16 -16 -15 -14 -16 -17 -16 -16 -16 -16 -17 -16 -17 -17 -17 -17 -17 -17 -17 -17 -17 -17 -17 -17 -17 -17 -17 -17 -17 -17 -17 -17 -17 -17
-20 -20 -20 -19 -19 -19 -19 -17 -16 -16 -16 -16 -16 -14 -17 -17 -17 -17 -17 -17 -17 -18 -18 -18 -18 -18 -18 -17 -17 -17 -17 -17 -17 -17 -17 -17 -17 -17 -17 -17 -17 -18 -18 -18
-20 -21 -21 -19 -20 -21 -16 -17 -17 -16 -16 -16 -15 -15 -16 -17 -17 -17 -16 -16 -17 -17 -18 -18 -18 -18 -18 -18 -17 -17 -17 -17 -17 -17 -17 -17 -17 -17 -18 -18 -18 -18 -18 -19
-20 -21 -21 -21 -21 -19 -18 -17 -17 -17 -16 -16 -15 -16 -16 -16 -17 -16 -16 -17 -17 -17 -17 -17 -18 -18 -18 -18 -17 -17 -17 -17 -17 -17 -17 -17 -18 -18 -18 -18 -19 -19 -19 -20
-21 -21 -21 -21 -22 -21 -16 -18 -17 -18 -17 -16 -16 -16 -16 -17 -17 -16 -17 -18 -18 -18 -18 -18 -18 -17 -17 -17 -17 -17 -18 -18 -17 -18 -18 -18 -18 -18 -18 -19 -19 -19 -20 -21
-21 -21 -21 -21 -22 -20 -17 -17 -18 -18 -15 -16 -16 -17 -17 -17 -16 -17 -18 -17 -17 -17 -17 -17 -17 -17 -17 -18 -18 -18 -18 -18 -18 -18 -18 -18 -19 -19 -19 -20 -20 -20 -21 -22
-22 -22 -22 -21 -22 -21 -17 -17 -17 -16 -16 -17 -17 -18 -17 -17 -17 -17 -17 -18 -18 -17 -17 -18 -18 -18 -18 -18 -18 -18 -18 -18 -18 -18 -19 -19 -19 -19 -20 -20 -20 -21 -22 -23
-23 -23 -23 -22 -20 -19 -19 -18 -19 -19 -18 -18 -17 -17 -17 -17 -16 -17 -17 -17 -18 -18 -18 -18 -18 -17 -17 -18 -18 -19 -18 -18 -18 -19 -19 -19 -20 -20 -20 -21 -22 -22 -23 -23
-24 -23 -23 -22 -21 -21 -20 -20 -20 -18 -18 -18 -18 -18 -17 -17 -17 -17 -17 -18 -18 -18 -18 -18 -18 -18 -18 -19 -19 -18 -18 -18 -19 -19 -19 -20 -20 -21 -21 -22 -23 -23 -23 -24
-24 -23 -23 -22 -22 -21 -22 -21 -20 -19 -19 -19 -19 -19 -18 -18 -18 -18 -18 -18 -18 -18 -18 -18 -18 -19 -20 -19 -19 -19 -19 -19 -19 -19 -20 -20 -21 -21 -22 -23 -24 -24 -24 -24
-24 -23 -23 -22 -22 -22 -21 -22 -22 -21 -20 -20 -19 -19 -19 -18 -18 -18 -18 -18 -19 -18 -19 -19 -20 -20 -20 -19 -19 -19 -19 -20 -20 -20 -20 -21 -22 -22 -23 -24 -24 -24 -24 -24
Height
5747 5751 5752 5755 5759 5763 5766 5768 5771 5774 5778 5781 5784 5787 5790 5794 5796 5799 5804 5807 5810 5812 5815 5816 5817 5820 5822 5823 5824 5824 5825 5824 5825 5824 5822 5821 5819 5818 5816 5813 5811 5809 5806 5803
5743 5745 5749 5752 5756 5758 5761 5764 5767 5769 5772 5775 5778 5780 5782 5786 5789 5793 5796 5800 5803 5805 5807 5809 5810 5812 5814 5816 5817 5817 5818 5817 5818 5817 5816 5815 5813 5812 5810 5807 5804 5802 5799 5796
5737 5740 5745 5749 5751 5754 5756 5759 5761 5764 5766 5768 5770 5772 5775 5779 5781 5786 5789 5792 5795 5796 5798 5800 5803 5805 5807 5808 5809 5810 5811 5811 5810 5809 5808 5808 5806 5805 5803 5801 5798 5795 5792 5789
5731 5736 5739 5743 5746 5749 5751 5753 5755 5758 5759 5762 5764 5765 5768 5772 5775 5779 5780 5783 5787 5788 5790 5792 5794 5796 5798 5800 5802 5802 5802 5803 5802 5801 5800 5800 5798 5797 5795 5792 5790 5787 5784 5781
5730 5731 5735 5738 5740 5743 5745 5747 5749 5750 5752 5754 5756 5757 5762 5765 5767 5772 5773 5774 5778 5781 5782 5784 5786 5787 5789 5790 5793 5793 5793 5794 5793 5792 5793 5791 5790 5789 5786 5784 5782 5779 5776 5773
5719 5723 5729 5732 5734 5737 5739 5742 5743 5743 5745 5747 5750 5752 5756 5759 5761 5761 5763 5767 5770 5772 5774 5775 5776 5778 5780 5782 5783 5784 5785 5784 5784 5785 5785 5783 5782 5780 5778 5775 5773 5771 5768 5765
5713 5717 5720 5725 5727 5729 5731 5734 5736 5738 5738 5742 5744 5744 5749 5751 5752 5754 5756 5757 5760 5761 5763 5765 5767 5768 5771 5772 5774 5774 5775 5775 5775 5776 5775 5775 5773 5771 5769 5766 5765 5762 5760 5757
5707 5711 5715 5719 5721 5724 5726 5728 5731 5730 5732 5734 5735 5738 5740 5745 5745 5745 5747 5747 5751 5752 5754 5756 5757 5759 5760 5762 5763 5763 5764 5765 5767 5766 5766 5765 5763 5762 5760 5758 5757 5754 5752 5749
5699 5702 5707 5710 5714 5716 5719 5721 5723 5724 5725 5726 5729 5733 5732 5735 5737 5738 5740 5741 5743 5744 5746 5746 5748 5750 5752 5753 5754 5755 5756 5756 5756 5756 5756 5754 5754 5754 5752 5750 5748 5746 5743 5741
5690 5693 5697 5700 5704 5707 5711 5713 5714 5715 5717 5718 5721 5724 5726 5726 5729 5730 5731 5733 5735 5735 5736 5737 5739 5740 5742 5744 5745 5747 5747 5745 5746 5747 5747 5747 5746 5744 5742 5741 5739 5738 5736 5733
5680 5682 5687 5690 5694 5699 5703 5704 5707 5708 5710 5711 5715 5719 5720 5719 5720 5722 5722 5724 5726 5728 5730 5731 5732 5732 5733 5734 5735 5736 5737 5739 5739 5739 5739 5738 5737 5736 5734 5733 5731 5730 5728 5725
5669 5669 5675 5681 5683 5689 5692 5696 5697 5697 5702 5703 5704 5711 5712 5712 5714 5715 5716 5716 5719 5720 5722 5723 5724 5725 5726 5727 5728 5730 5731 5732 5732 5731 5730 5731 5730 5729 5727 5726 5724 5722 5719 5716
5660 5660 5663 5666 5673 5679 5680 5684 5689 5691 5690 5694 5696 5703 5707 5708 5707 5707 5708 5709 5710 5712 5714 5715 5716 5718 5720 5721 5722 5722 5723 5724 5724 5724 5724 5724 5723 5721 5720 5718 5715 5712 5709 5706
5643 5648 5652 5660 5669 5669 5672 5676 5680 5682 5684 5689 5692 5694 5700 5698 5697 5698 5699 5700 5702 5704 5706 5708 5710 5711 5712 5713 5714 5716 5716 5717 5717 5718 5717 5716 5715 5714 5711 5709 5706 5702 5699 5694
5629 5636 5643 5648 5652 5654 5659 5662 5665 5668 5679 5674 5688 5685 5691 5688 5687 5688 5689 5693 5696 5696 5699 5700 5701 5702 5704 5706 5707 5708 5708 5709 5710 5709 5709 5708 5706 5705 5702 5699 5696 5692 5687 5683
5621 5625 5628 5632 5637 5639 5642 5646 5654 5662 5665 5667 5669 5676 5682 5681 5682 5683 5685 5686 5688 5689 5691 5693 5694 5696 5698 5698 5699 5700 5700 5701 5701 5701 5700 5699 5697 5695 5692 5689 5685 5681 5676 5671
5608 5612 5615 5621 5625 5622 5616 5644 5647 5652 5653 5660 5658 5674 5673 5674 5674 5676 5677 5677 5677 5678 5681 5685 5687 5688 5689 5690 5691 5691 5692 5693 5692 5692 5691 5689 5687 5685 5681 5677 5674 5670 5665 5659
5595 5600 5600 5606 5605 5594 5629 5625 5635 5638 5643 5647 5652 5652 5660 5665 5666 5666 5667 5668 5669 5671 5674 5677 5678 5679 5680 5681 5683 5684 5684 5683 5683 5682 5680 5679 5677 5673 5670 5666 5662 5658 5652 5647
5583 5587 5588 5587 5587 5596 5604 5621 5627 5626 5634 5637 5643 5645 5649 5653 5654 5659 5661 5663 5664 5666 5667 5668 5669 5671 5672 5673 5674 5674 5674 5673 5672 5671 5670 5668 5665 5662 5658 5655 5650 5645 5640 5635
5569 5571 5573 5576 5574 5574 5610 5607 5608 5610 5610 5631 5631 5634 5635 5639 5641 5655 5654 5654 5657 5658 5657 5658 5660 5661 5662 5664 5663 5663 5663 5663 5662 5661 5659 5657 5654 5651 5646 5642 5637 5633 5628 5623
5552 5553 5554 5561 5560 5568 5590 5592 5594 5591 5622 5609 5617 5620 5618 5621 5634 5638 5639 5641 5643 5644 5646 5649 5651 5652 5652 5653 5653 5653 5653 5652 5651 5650 5648 5645 5641 5638 5633 5629 5625 5621 5616 5612
5535 5539 5541 5547 5547 5555 5577 5577 5582 5599 5597 5595 5599 5603 5608 5612 5616 5620 5624 5626 5631 5634 5636 5639 5638 5639 5639 5640 5641 5641 5641 5641 5640 5638 5635 5632 5628 5624 5620 5616 5612 5609 5605 5602
5515 5522 5526 5530 5540 5562 5562 5570 5572 5576 5581 5584 5587 5592 5597 5601 5605 5607 5610 5613 5618 5621 5624 5626 5627 5628 5629 5629 5629 5630 5631 5630 5628 5625 5623 5619 5615 5612 5608 5604 5600 5598 5596 5593
5499 5509 5511 5519 5530 5542 5549 5554 5558 5563 5569 5572 5577 5581 5585 5590 5592 5596 5599 5603 5607 5610 5612 5614 5615 5616 5617 5618 5619 5620 5619 5617 5615 5613 5610 5607 5603 5600 5596 5592 5590 5588 5586 5584
5483 5489 5497 5503 5517 5525 5532 5541 5547 5549 5554 5559 5563 5568 5574 5578 5582 5585 5588 5592 5595 5597 5600 5602 5603 5605 5607 5608 5608 5608 5606 5605 5603 5600 5598 5595 5591 5588 5585 5583 5581 5579 5577 5574
5466 5477 5480 5489 5502 5508 5517 5520 5528 5536 5541 5544 5550 5556 5561 5566 5570 5574 5577 5580 5584 5585 5589 5591 5593 5595 5596 5596 5596 5595 5594 5592 5590 5587 5585 5582 5579 5577 5575 5574 5572 5570 5567 5564
Wind_Speed
33 30 28 28 27 25 27 30 34 36 38 41 41 43 43 46 43 40 39 37 41 40 40 40 38 38 37 39 38 38 37 35 35 35 34 36 36 36 29 28 29 31 33 35
35 32 32 31 29 27 26 28 32 35 37 41 44 44 44 43 41 41 35 34 35 49 50 45 44 42 40 40 39 39 39 37 37 37 36 39 38 38 34 33 34 36 36 39
34 35 33 30 28 28 28 26 29 33 37 39 42 45 47 47 42 43 36 35 37 34 49 48 47 46 44 42 41 41 40 39 40 39 39 38 40 43 39 39 39 40 41 44
37 37 34 32 29 28 28 28 29 32 35 38 41 43 44 45 43 44 38 34 34 33 41 48 48 47 45 41 41 42 42 44 42 41 40 40 42 43 41 41 41 43 44 46
38 37 35 32 29 30 30 30 30 31 36 38 41 44 40 43 43 45 40 39 39 36 37 45 52 52 48 46 46 45 49 49 46 51 52 49 43 44 39 42 43 45 45 42
41 40 38 35 34 34 34 32 31 31 33 38 39 44 43 42 37 38 41 39 39 39 42 44 51 53 45 46 50 51 48 50 48 53 53 44 40 37 41 43 43 44 41 38
43 43 43 39 39 37 37 37 35 33 31 32 36 42 40 39 42 37 39 39 42 43 44 45 47 50 53 46 50 50 51 53 57 56 43 38 37 43 41 40 41 39 37 37
43 44 43 41 41 39 34 32 32 33 36 35 33 35 42 39 38 39 41 41 41 36 38 43 48 51 51 52 54 55 57 52 55 51 46 41 39 41 41 37 35 34 34 36
45 45 44 43 40 39 37 35 31 32 34 36 36 34 37 36 36 38 42 40 41 39 37 34 36 43 48 50 50 50 50 37 36 33 34 40 40 39 33 31 35 37 35 34
48 47 46 46 43 43 38 35 35 35 37 37 35 34 33 33 33 34 37 39 39 39 38 34 33 34 35 36 37 42 47 42 38 35 38 38 37 32 35 32 33 37 40 39
53 52 51 48 48 45 41 40 38 35 35 34 33 32 24 30 28 28 34 36 36 36 35 32 31 31 30 31 34 37 39 35 38 38 38 37 32 29 31 35 35 32 36 39
56 57 55 52 48 48 46 43 41 41 38 37 38 35 30 28 25 23 27 31 31 30 29 29 29 29 27 27 28 30 33 37 40 41 29 28 30 33 31 32 34 38 42 44
56 58 57 57 54 51 52 49 44 42 43 41 40 39 24 24 27 27 29 32 30 30 30 30 28 27 26 29 32 30 26 24 24 24 27 31 32 31 34 37 41 42 44 48
61 56 59 56 52 54 53 49 47 44 43 41 39 36 20 26 30 31 32 33 35 34 32 30 29 31 32 30 27 27 26 26 27 30 33 33 34 37 39 40 43 45 50 52
63 62 57 58 57 57 55 53 52 49 44 45 33 34 22 30 31 34 33 31 30 32 31 30 29 29 29 28 27 29 30 34 31 33 36 35 35 38 41 42 47 51 50 50
62 65 61 63 60 61 60 57 53 49 50 47 46 38 28 26 27 30 29 32 31 31 31 32 31 30 28 29 30 31 33 34 33 32 33 37 39 41 43 49 48 48 51 54
50 60 65 65 63 63 70 58 55 51 52 48 49 35 37 33 31 28 28 31 35 37 36 35 34 34 33 32 32 31 31 31 33 36 39 40 40 45 47 46 48 52 55 57
54 43 46 69 72 74 60 63 57 58 54 52 49 49 44 36 36 33 33 34 35 37 34 33 34 34 33 31 31 31 34 36 37 39 38 40 44 44 46 49 52 55 56 56
62 54 48 50 57 70 71 62 56 57 56 57 54 51 45 42 42 41 38 35 34 31 30 31 32 32 32 34 35 36 38 38 39 38 41 43 44 47 50 53 55 55 55 53
64 60 58 53 50 52 56 53 56 58 58 46 52 52 52 47 46 38 40 40 37 36 38 37 36 37 39 39 40 39 40 39 40 41 42 45 48 52 53 53 53 52 51 49
75 70 66 62 60 57 55 55 56 58 41 51 52 54 57 56 49 42 41 44 45 46 45 42 40 41 43 43 44 41 39 39 38 42 45 49 52 53 52 52 51 50 49 44
80 79 73 68 65 62 57 60 59 50 50 48 48 47 48 48 48 49 48 46 49 49 48 41 43 40 39 39 39 39 36 37 42 46 50 51 51 51 51 50 49 47 42 34
75 73 70 73 69 58 59 58 55 51 49 50 48 47 47 46 48 46 45 49 49 48 44 43 40 40 40 40 36 34 38 42 46 49 49 50 50 50 49 48 45 39 33 34
69 64 61 57 68 58 60 61 56 59 58 53 55 51 46 43 41 43 39 35 35 36 39 41 42 44 40 34 35 38 42 46 48 48 49 50 49 48 47 44 36 32 34 36
68 63 61 55 57 55 52 56 53 56 53 50 49 49 49 44 43 42 38 38 41 42 43 44 41 34 32 35 39 43 46 47 47 49 49 48 47 47 41 35 32 34 36 37
71 62 47 56 58 59 51 43 45 46 45 52 52 50 49 47 47 45 41 41 42 41 41 37 33 33 36 41 44 46 47 48 48 48 47 46 45 40 34 32 34 36 36 37
Wind_Direction
214 217 220 222 224 228 231 233 234 231 228 230 230 231 236 234 228 232 240 232 235 244 243 243 243 245 247 249 250 251 252 255 258 264 271 285 288 294 281 285 288 295 296 297
215 218 220 224 228 235 240 238 237 235 236 235 233 235 231 235 236 230 233 235 241 244 244 243 243 243 244 249 250 252 255 256 260 265 275 279 285 289 282 285 290 292 296 303
217 221 222 227 229 232 237 243 243 240 238 239 238 237 235 239 238 234 235 244 245 252 240 240 242 244 245 246 250 252 255 258 258 265 271 276 280 284 282 284 289 292 296 301
217 221 222 224 228 232 236 241 247 246 244 243 243 242 239 236 237 234 229 238 245 251 246 241 242 242 244 244 248 249 252 257 258 263 268 275 279 282 280 282 287 293 297 301
223 224 225 226 227 231 235 238 244 248 247 246 245 245 234 238 243 240 242 240 245 247 251 246 243 242 240 247 245 250 254 256 255 257 268 270 279 278 282 285 289 294 298 299
219 224 225 226 230 232 236 238 242 248 250 252 250 249 243 245 244 240 239 238 237 247 250 249 246 244 240 240 251 257 251 252 259 268 269 272 277 280 281 284 290 295 295 296
223 225 226 225 229 230 235 238 242 248 253 259 253 253 253 251 249 244 243 241 245 245 249 250 246 248 241 247 251 251 252 255 261 270 266 268 274 277 282 288 292 292 294 295
228 230 233 232 234 236 237 242 243 247 250 254 260 258 255 249 252 246 247 246 247 249 249 250 250 246 243 245 250 253 254 259 264 264 264 267 270 273 282 291 290 293 297 298
229 230 232 235 236 240 240 242 243 247 250 253 257 262 261 253 250 247 247 249 250 252 248 247 248 250 253 255 258 261 266 267 257 255 257 261 274 283 286 285 286 291 295 297
229 232 233 236 237 238 239 238 240 242 246 250 255 259 262 261 252 250 251 249 248 251 252 254 259 260 262 262 262 267 262 247 248 256 263 271 275 274 280 286 285 288 290 292
231 231 233 234 236 238 238 240 244 246 248 253 254 254 255 253 254 246 244 245 246 247 251 254 254 252 251 254 255 257 258 254 260 269 273 274 280 279 281 286 289 289 290 293
231 233 233 235 237 238 238 239 237 240 241 243 246 243 247 245 247 246 244 249 247 244 241 242 245 246 247 249 252 254 257 259 263 267 273 275 281 286 287 287 287 289 291 293
234 233 234 233 234 236 236 236 239 241 242 241 245 251 252 254 249 244 241 243 246 242 235 237 241 239 250 252 253 256 261 266 272 276 279 282 282 282 283 285 288 290 292 294
233 235 237 237 239 240 240 242 243 243 245 249 249 253 247 242 247 245 242 237 238 239 241 246 246 245 249 248 249 252 256 260 266 272 276 275 277 280 284 286 288 292 295 297
235 235 237 236 237 239 237 240 240 240 240 246 245 249 231 238 241 242 245 246 245 246 248 248 242 238 239 244 251 255 257 266 268 271 274 276 278 281 284 288 292 295 297 298
240 237 237 236 236 238 239 237 238 241 242 243 245 239 235 246 256 256 251 245 241 242 241 240 241 243 246 250 252 256 260 263 266 269 272 277 280 283 287 291 294 295 297 298
237 239 241 237 239 240 239 235 238 240 243 243 244 242 250 246 243 248 248 242 238 237 238 237 238 243 250 253 253 255 258 261 265 270 275 279 281 287 290 292 294 296 298 299
230 231 235 239 240 241 242 236 236 237 239 243 244 245 246 241 242 240 242 242 241 241 242 244 245 246 245 248 253 257 260 265 270 275 277 283 288 289 291 294 296 297 298 299
231 233 234 236 239 244 239 240 243 246 243 242 245 248 248 244 239 247 252 250 250 251 248 246 243 247 254 257 259 263 268 271 274 276 283 286 287 290 293 295 296 296 297 299
237 235 235 238 240 240 237 241 245 245 244 244 247 247 251 250 245 250 246 243 248 250 250 248 247 251 255 260 263 264 270 269 273 280 282 285 288 291 293 294 295 296 298 299
236 241 241 241 244 239 235 239 242 248 248 251 247 245 245 248 252 245 242 242 241 248 248 248 253 256 258 258 261 263 263 271 276 279 284 287 291 292 292 293 295 297 297 296
242 242 248 248 248 240 240 244 247 251 248 248 249 243 241 244 245 246 242 240 242 247 253 256 260 255 255 255 255 264 269 274 278 283 286 288 290 290 291 293 294 294 292 285
242 247 253 249 247 245 246 246 248 249 247 248 249 244 245 250 251 251 246 245 249 249 250 249 254 252 251 258 260 266 274 278 281 283 286 287 288 290 292 291 291 287 280 281
237 238 239 252 248 248 241 243 246 249 249 249 248 249 254 252 246 239 236 241 247 244 245 252 252 253 256 258 267 272 275 278 280 283 285 286 289 289 288 289 282 274 278 283
219 222 227 232 237 238 234 237 243 245 244 242 247 248 247 244 241 244 248 250 247 245 247 248 247 248 259 267 270 273 276 278 281 283 285 287 286 285 285 276 269 275 281 286
214 216 220 224 224 231 227 227 234 243 246 244 242 241 241 242 247 252 248 243 243 244 245 243 249 258 264 266 270 274 276 279 281 284 285 284 282 281 270 266 272 278 285 288